User: anonymous   Login
Location: Oshawa
(43.9000°N, 78.8670°W)
Time: 08:00:03
(UTC-04:00)
Language:

Envisat - Orbit

View from above orbital plane
View from above orbital plane
View from above satellite
View from above satellite

Ground track
Ground track

The orbit data is extracted from the following two-line orbital elements,

1 27386U 02009A   14304.14042178  .00000109  00000-0  50235-4 0  5924
2 27386 098.3681 006.0500 0001171 107.7941 304.1360 14.37746467663116
Epoch (UTC): 31 October 2014 03:22:12
Eccentricity: 0.0001171
inclination: 98.3681°
perigee height: 765 km
apogee height: 767 km
right ascension of ascending node: 6.0500°
argument of perigee: 107.7941°
revolutions per day: 14.37746467
mean anomaly at epoch: 304.1360°
orbit number at epoch: 66311

The dashed part of the orbit path shows where the satellite is in the earth's shadow,  

DLR